Island Lake, Manitoba

3:13 AM CDT on May 27, 2017 (GMT -0500)
Island Lake

Weather History for CYIV - February, 2013

Change the Weather History Date:

Sunday, February 17, 2013

  Actual Average Record
Temperature  
Mean Temperature 8 °F -  
Max Temperature 17 °F 16 °F 39 °F (2002)
Min Temperature 0 °F -4 °F -34 °F (2006)
Degree Days  
Heating Degree Days 56    
Moisture  
Dew Point 9 °F    
Average Humidity 87    
Maximum Humidity 100    
Minimum Humidity 64    
Precipitation  
Precipitation 0.04 in 0.03 in - ()
Sea Level Pressure  
Sea Level Pressure 29.79 in    
Wind  
Wind Speed 7 mph ()    
Max Wind Speed 17 mph    
Max Gust Speed 28 mph    
Visibility 8.5 miles    
Events Snow    
Averages and records for this station are not official NWS values.
T = Trace of Precipitation, MM = Missing Value Source: Averaged Metar Reports

Daily Weather History Graph

Daily Weather History Graph

Search for Another Location

Airport or City:

Trip Planner

Search our weather history database for the weather conditions in past years. The results will help you decide how hot, cold, wet, or windy it might be!

Date:

Astronomy

Feb. 17, 2013 Rise Set
Actual Time 7:33 AM CST 5:32 PM CST
Civil Twilight 6:56 AM CST 6:09 PM CST
Nautical Twilight 6:15 AM CST 6:50 PM CST
Astronomical Twilight 5:35 AM CST 7:31 PM CST
Moon 10:15 AM CST (2/17) 1:38 AM CST (2/17)
Length of Visible Light 11h 12m
Length of Day
9h 59m
Waxing Crescent, 49% of the Moon is Illuminated
Feb 17
Waxing Crescent
Feb 17
First Quarter
Feb 25
Full
Mar 4
Last Quarter
Mar 11
New

Hourly Weather History & Observations

Time (CST) Temp. Windchill Dew Point Humidity Pressure Visibility Wind Dir Wind Speed Gust Speed Precip Events Conditions
12:00 AM 13 °F - 6 °F 64% 29.84 in 15 mi South 8.1 mph - -   Overcast
12:00 AM 14.0 °F 2.9 °F 6.8 °F 73% 29.84 in 15.0 mi South 8.1 mph - N/A   Overcast
12:09 AM - - - N/A% - 15.0 mi South 8.1 mph - N/A   Unknown
1:00 AM 14.0 °F 2.9 °F 6.8 °F 73% 29.83 in 15.0 mi SSE 8.1 mph - N/A   Overcast
2:00 AM 14.0 °F 2.0 °F 8.6 °F 79% 29.81 in 15.0 mi SSE 9.2 mph - N/A Snow Light Snow
4:00 AM 14.0 °F 3.9 °F 10.4 °F 86% 29.78 in 15.0 mi SSE 6.9 mph - N/A Snow Light Snow
5:00 AM 14.0 °F 5.1 °F 12.2 °F 93% 29.77 in 15.0 mi SE 5.8 mph - N/A Snow Light Snow
5:38 AM - - - N/A% - 15.0 mi ESE 5.8 mph - N/A   Unknown
6:00 AM 13 °F - 13 °F 97% 29.75 in 15 mi ESE 4.6 mph - - Snow Light Snow
6:00 AM 12.2 °F 4.3 °F 12.2 °F 100% 29.75 in 15.0 mi ESE 4.6 mph - N/A Snow Light Snow
7:00 AM 14.0 °F 6.5 °F 12.2 °F 93% 29.73 in 15.0 mi ESE 4.6 mph - N/A Snow Light Snow
8:00 AM 14.0 °F 6.5 °F 12.2 °F 93% 29.73 in 15.0 mi ESE 4.6 mph - N/A   Overcast
9:00 AM 14.0 °F 8.2 °F 10.4 °F 86% 29.73 in 15.0 mi ESE 3.5 mph - N/A Snow Light Snow
10:00 AM 14.0 °F 8.2 °F 10.4 °F 86% 29.72 in 5.0 mi East 3.5 mph - N/A Snow Light Snow
10:14 AM - - - N/A% - 1.5 mi East 2.3 mph - N/A   Unknown
11:00 AM 14.0 °F 8.2 °F 12.2 °F 93% 29.72 in 1.5 mi East 3.5 mph - N/A Snow Light Snow
11:30 AM - - - N/A% - 2.5 mi East 3.5 mph - N/A   Unknown
12:00 PM 16 °F - 13 °F 85% 29.72 in 3 mi NE 2.3 mph - - Snow Light Snow
12:00 PM 15.8 °F 10.2 °F 14.0 °F 93% 29.72 in 3.0 mi NNE 3.5 mph - N/A Snow Light Snow
12:29 PM - - - N/A% - 1.2 mi NE 4.6 mph - N/A   Unknown
1:00 PM 15.8 °F 5.1 °F 14.0 °F 93% 29.72 in 1.5 mi NE 8.1 mph - N/A Snow Light Snow
1:17 PM - - - N/A% - 3.0 mi NE 5.8 mph - N/A   Unknown
2:00 PM 17.6 °F 5.0 °F 14.0 °F 86% 29.72 in 3.0 mi NE 11.5 mph 17.3 mph N/A Snow Light Snow
3:00 PM 15.8 °F 3.4 °F 12.2 °F 86% 29.73 in 12.0 mi NE 10.4 mph - N/A Snow Light Snow
3:49 PM - - - N/A% - 1.5 mi NNE 8.1 mph - N/A   Unknown
4:00 PM 15.8 °F 5.1 °F 12.2 °F 86% 29.75 in 1.5 mi NE 8.1 mph - N/A Snow Light Snow
4:14 PM - - - N/A% - 2.5 mi NE 9.2 mph 20.7 mph N/A   Unknown
5:00 PM 15.8 °F 3.4 °F 12.2 °F 86% 29.78 in 1.2 mi North 10.4 mph - N/A Snow Light Snow
5:41 PM - - - N/A% - 3.0 mi NNE 13.8 mph 23.0 mph N/A   Unknown
6:00 PM 11 °F - 7 °F 75% 29.82 in 3 mi NNE 12.7 mph - - Snow Light Snow
6:00 PM 10.4 °F -6.0 °F 6.8 °F 85% 29.82 in 3.0 mi NNE 15.0 mph 21.9 mph N/A Snow Light Snow
7:00 PM 6.8 °F -10.0 °F 5.0 °F 92% 29.87 in 8.0 mi NNE 13.8 mph 25.3 mph N/A Snow Light Snow
8:00 PM 5.0 °F -11.6 °F 1.4 °F 85% 29.89 in 6.0 mi NNE 12.7 mph 20.7 mph N/A Snow Light Snow
8:35 PM - - - N/A% - 10.0 mi NNE 12.7 mph 20.7 mph N/A   Unknown
9:00 PM 1.4 °F -17.6 °F -0.4 °F 92% 29.93 in 12.0 mi NNE 15.0 mph 25.3 mph N/A Snow Light Snow
10:00 PM 1.4 °F -15.3 °F -0.4 °F 92% 29.95 in 15.0 mi NNE 11.5 mph 18.4 mph N/A Snow Light Snow
11:00 PM -0.4 °F -21.2 °F -2.2 °F 92% 29.97 in 15.0 mi NNE 17.3 mph 27.6 mph N/A Snow Light Snow